Location: B�rgermoos
(47.6500°N, 9.0667°E)
Time: 02:06:41
(UTC+00:00)

Tiros 1 - Pass Details

Date: 08 August 2021
Orbit: 630 x 663 km, 48.4° (Epoch: 16 September)

Event Time Altitude Azimuth Distance (km) Brightness Sun altitude
Rises 21:05:16 0° 283° (WNW) 2,975 11.4 -18.8°
Reaches altitude 10° 21:08:11 10° 266° (W) 2,054 10.1 -19.1°
Maximum altitude 21:11:28 19° 222° (SW) 1,536 8.9 -19.4°
Enters shadow 21:12:16 18° 208° (SSW) 1,567 8.9 -19.5°
Drops below altitude 10° 21:14:45 10° 177° (S) 2,030 - -19.7°
Sets 21:17:37 0° 159° (SSE) 2,929 - -20.0°
